Location: Unspecified
(0.0000°N, 0.0000°E)
Time: 14:18:38
(UTC+00:00)

STARLINK-35278 - Pass Details

Date: 23 February 2026
Orbit: 474 x 476 km, 53.2° (Epoch: 6 March)

Event Time Altitude Azimuth Distance (km) Brightness Sun altitude
Rises 18:57:33 0° 221° (SW) 2,533 6.9 -10.9°
Reaches altitude 10° 18:59:45 10° 225° (SW) 1,652 5.9 -11.4°
Maximum altitude 19:03:24 55° 303° (WNW) 577 3.0 -12.3°
Drops below altitude 10° 19:07:03 10° 22° (NNE) 1,644 4.7 -13.2°
Enters shadow 19:07:34 - 24° (NNE) 1,849 5.0 -13.4°
